User: anonymous   Login
Location: Unspecified
(0.0000°N, 0.0000°E)
Time: 03:02:29
(UTC+00:00)
Language:

USA 142 - Orbit

View from above orbital plane
View from above orbital plane
View from above satellite
View from above satellite

Ground track
Ground track

The orbit data is extracted from the following two-line orbital elements,

1 25669U 99017A   18044.68656136 0.00000000  00000-0  00000-0 0    05
2 25669  29.3657  34.9406 7095880 255.5755  22.2950  2.32913774    07
Epoch (UTC): 13 February 2018 16:28:38
Eccentricity: 0.7095880
inclination: 29.3657°
perigee height: 603 km
apogee height: 34720 km
right ascension of ascending node: 34.9406°
argument of perigee: 255.5755°
revolutions per day: 2.32913774
mean anomaly at epoch: 22.2950°
orbit number at epoch: 0

The dashed part of the orbit path shows where the satellite is in the earth's shadow,  

DLR